Precipitable_Water
0.84 0.88 0.90 0.91 0.92 0.92 0.92 0.92 0.91 0.95 0.97 1.03 0.99 0.98 0.99 1.00 1.01 1.05 1.09 1.07 1.10 1.09 1.08 1.10 1.14 1.18 1.23 1.30 1.35 1.37 1.41 1.45 1.47 1.45 1.45 1.41 1.42 1.33 1.20 1.12 1.07 1.05 1.00 0.98 1.00 0.96 1.00 1.03 1.12 1.22 1.29 1.25 1.27 1.28 1.26 1.27 1.27 1.25 1.24 1.21 1.18 1.20 1.16 1.12 1.03 1.05 1.18 1.29 1.27 1.29 1.35 1.36 1.31 1.35 1.34 1.37 1.38 1.41 1.43 1.45 1.45 1.43 1.39 1.38 1.36
0.79 0.85 0.89 0.90 0.89 0.89 0.90 0.91 0.92 0.93 0.91 0.97 0.98 0.97 1.01 1.03 1.04 1.04 1.04 1.07 1.11 1.10 1.10 1.12 1.15 1.19 1.23 1.28 1.34 1.36 1.41 1.44 1.46 1.46 1.43 1.40 1.36 1.36 1.29 1.17 1.10 1.07 1.03 0.98 0.99 1.06 1.06 1.07 1.11 1.19 1.26 1.28 1.28 1.28 1.28 1.27 1.26 1.23 1.24 1.22 1.20 1.21 1.26 1.17 1.12 1.07 1.04 1.20 1.23 1.33 1.31 1.36 1.27 1.40 1.35 1.35 1.35 1.36 1.36 1.35 1.36 1.38 1.30 1.26 1.24
0.78 0.84 0.85 0.85 0.85 0.87 0.87 0.87 0.87 0.87 0.89 0.90 0.92 0.93 0.95 0.98 1.03 1.02 1.04 1.05 1.08 1.09 1.10 1.13 1.17 1.20 1.23 1.30 1.34 1.35 1.37 1.43 1.49 1.52 1.52 1.45 1.38 1.35 1.31 1.22 1.14 1.12 1.06 1.03 1.07 1.16 1.14 1.11 1.12 1.19 1.24 1.22 1.23 1.27 1.30 1.29 1.30 1.25 1.23 1.25 1.23 1.27 1.30 1.29 1.19 1.10 1.09 1.13 1.23 1.23 1.27 1.32 1.33 1.35 1.41 1.38 1.35 1.35 1.32 1.29 1.24 1.28 1.25 1.18 1.14
0.80 0.82 0.83 0.83 0.84 0.85 0.85 0.86 0.83 0.83 0.83 0.87 0.87 0.89 0.91 0.92 0.96 0.98 1.03 1.07 1.06 1.10 1.12 1.14 1.17 1.21 1.24 1.28 1.33 1.35 1.37 1.42 1.49 1.58 1.46 1.45 1.39 1.38 1.33 1.27 1.21 1.20 1.17 1.15 1.17 1.21 1.18 1.13 1.12 1.15 1.22 1.20 1.21 1.25 1.29 1.32 1.30 1.29 1.28 1.28 1.29 1.30 1.34 1.33 1.29 1.19 1.16 1.09 1.21 1.21 1.29 1.29 1.36 1.38 1.40 1.37 1.32 1.29 1.27 1.22 1.19 1.17 1.16 1.10 1.04
0.76 0.79 0.80 0.80 0.81 0.81 0.82 0.83 0.82 0.82 0.82 0.83 0.85 0.89 0.90 0.92 0.93 0.94 0.96 0.99 1.05 1.09 1.11 1.13 1.15 1.18 1.21 1.26 1.32 1.34 1.37 1.43 1.46 1.52 1.54 1.54 1.48 1.44 1.39 1.35 1.31 1.30 1.27 1.24 1.23 1.24 1.20 1.15 1.15 1.20 1.22 1.17 1.21 1.24 1.29 1.29 1.32 1.32 1.30 1.32 1.32 1.34 1.35 1.34 1.33 1.30 1.22 1.17 1.20 1.27 1.31 1.30 1.31 1.30 1.32 1.25 1.21 1.18 1.19 1.14 1.07 1.09 1.07 1.02 0.97
0.73 0.75 0.76 0.76 0.77 0.79 0.81 0.81 0.80 0.81 0.81 0.82 0.83 0.87 0.91 0.91 0.91 0.92 0.93 0.92 0.97 1.02 1.08 1.14 1.15 1.15 1.19 1.25 1.33 1.36 1.41 1.45 1.47 1.50 1.51 1.54 1.52 1.50 1.45 1.48 1.41 1.36 1.33 1.29 1.27 1.25 1.21 1.19 1.22 1.25 1.21 1.20 1.23 1.28 1.32 1.33 1.35 1.34 1.32 1.32 1.34 1.35 1.33 1.35 1.35 1.30 1.25 1.22 1.21 1.18 1.24 1.17 1.16 1.20 1.23 1.17 1.07 1.02 1.03 1.00 0.97 0.99 0.94 0.86 0.87
0.71 0.72 0.74 0.75 0.74 0.76 0.79 0.80 0.83 0.84 0.83 0.83 0.83 0.84 0.87 0.89 0.88 0.87 0.89 0.89 0.90 0.93 1.00 1.05 1.15 1.17 1.17 1.24 1.33 1.38 1.42 1.47 1.49 1.52 1.52 1.52 1.49 1.47 1.46 1.47 1.43 1.39 1.35 1.31 1.30 1.30 1.29 1.28 1.28 1.28 1.27 1.29 1.29 1.32 1.35 1.37 1.36 1.35 1.36 1.36 1.36 1.36 1.33 1.32 1.30 1.25 1.22 1.16 1.14 1.13 1.09 1.16 1.12 1.04 1.09 1.05 0.99 0.94 0.85 0.77 0.74 0.81 0.79 0.74 0.74
0.69 0.70 0.72 0.73 0.75 0.77 0.81 0.85 0.85 0.86 0.85 0.84 0.84 0.85 0.86 0.87 0.86 0.85 0.85 0.83 0.84 0.86 0.90 0.96 1.08 1.17 1.20 1.25 1.35 1.42 1.47 1.50 1.51 1.52 1.53 1.51 1.49 1.45 1.45 1.47 1.46 1.42 1.36 1.35 1.36 1.36 1.36 1.35 1.32 1.35 1.33 1.32 1.35 1.40 1.43 1.39 1.38 1.37 1.40 1.39 1.39 1.36 1.30 1.24 1.19 1.13 1.08 1.05 1.03 1.04 1.06 1.02 1.01 1.03 0.96 0.88 0.81 0.78 0.79 0.71 0.63 0.66 0.67 0.72 0.78
0.67 0.68 0.71 0.73 0.75 0.79 0.82 0.84 0.84 0.85 0.82 0.83 0.83 0.83 0.85 0.86 0.85 0.83 0.82 0.82 0.83 0.83 0.85 0.87 0.97 1.09 1.19 1.28 1.36 1.45 1.47 1.49 1.55 1.55 1.52 1.53 1.52 1.46 1.45 1.43 1.44 1.43 1.42 1.39 1.41 1.41 1.40 1.41 1.39 1.30 1.32 1.33 1.36 1.39 1.40 1.39 1.38 1.34 1.36 1.38 1.35 1.29 1.20 1.13 1.10 1.05 0.99 0.97 0.96 0.96 0.87 0.83 0.85 0.84 0.78 0.75 0.71 0.69 0.74 0.73 0.67 0.68 0.67 0.67 0.75
0.66 0.67 0.71 0.73 0.77 0.79 0.79 0.80 0.79 0.79 0.80 0.79 0.78 0.79 0.81 0.83 0.82 0.81 0.81 0.82 0.83 0.84 0.84 0.87 0.90 0.99 1.12 1.23 1.36 1.43 1.46 1.51 1.56 1.55 1.54 1.53 1.51 1.50 1.48 1.42 1.41 1.42 1.40 1.41 1.42 1.41 1.41 1.33 1.29 1.31 1.30 1.30 1.31 1.32 1.31 1.31 1.32 1.33 1.33 1.32 1.25 1.17 1.12 1.07 1.03 0.99 0.95 0.89 0.82 0.82 0.78 0.76 0.80 0.78 0.74 0.75 0.75 0.75 0.72 0.69 0.64 0.66 0.67 0.65 0.71
0.68 0.69 0.71 0.74 0.76 0.77 0.76 0.76 0.76 0.75 0.75 0.73 0.73 0.75 0.79 0.80 0.79 0.80 0.81 0.82 0.82 0.83 0.85 0.85 0.88 0.96 1.07 1.18 1.28 1.32 1.37 1.44 1.49 1.50 1.49 1.53 1.54 1.48 1.42 1.40 1.43 1.42 1.39 1.38 1.34 1.36 1.33 1.30 1.32 1.28 1.27 1.26 1.27 1.26 1.23 1.20 1.21 1.20 1.18 1.16 1.13 1.11 1.05 0.98 0.93 0.90 0.86 0.84 0.84 0.82 0.78 0.75 0.78 0.77 0.74 0.73 0.73 0.69 0.66 0.66 0.65 0.61 0.58 0.55 0.53
0.66 0.71 0.74 0.75 0.75 0.75 0.74 0.73 0.70 0.71 0.69 0.69 0.70 0.72 0.73 0.74 0.76 0.78 0.79 0.80 0.81 0.83 0.83 0.85 0.91 1.00 1.10 1.18 1.25 1.27 1.28 1.36 1.46 1.50 1.49 1.50 1.51 1.49 1.43 1.36 1.39 1.42 1.44 1.39 1.38 1.35 1.31 1.29 1.29 1.28 1.27 1.26 1.25 1.21 1.18 1.15 1.15 1.13 1.11 1.07 1.02 0.98 0.95 0.91 0.91 0.88 0.87 0.78 0.78 0.78 0.71 0.69 0.71 0.71 0.68 0.66 0.63 0.65 0.64 0.65 0.62 0.57 0.56 0.54 0.55
0.67 0.70 0.73 0.73 0.74 0.76 0.74 0.72 0.68 0.67 0.66 0.65 0.66 0.67 0.70 0.69 0.73 0.76 0.75 0.78 0.81 0.81 0.82 0.86 0.94 1.04 1.14 1.21 1.24 1.24 1.28 1.32 1.39 1.47 1.47 1.43 1.44 1.42 1.35 1.33 1.35 1.34 1.33 1.36 1.41 1.36 1.31 1.28 1.27 1.26 1.26 1.24 1.22 1.17 1.11 1.06 1.04 1.01 0.97 0.91 0.87 0.85 0.83 0.84 0.86 0.85 0.83 0.75 0.73 0.70 0.70 0.71 0.68 0.67 0.66 0.63 0.65 0.61 0.60 0.60 0.57 0.57 0.55 0.54 0.54
0.66 0.69 0.70 0.71 0.73 0.74 0.72 0.69 0.66 0.65 0.61 0.61 0.65 0.68 0.69 0.69 0.70 0.74 0.74 0.77 0.79 0.80 0.81 0.84 0.95 1.06 1.15 1.19 1.21 1.23 1.25 1.30 1.34 1.42 1.44 1.43 1.41 1.40 1.36 1.34 1.33 1.35 1.37 1.39 1.38 1.32 1.32 1.28 1.25 1.22 1.20 1.20 1.19 1.12 1.04 1.00 0.97 0.95 0.92 0.87 0.82 0.80 0.78 0.77 0.77 0.78 0.80 0.77 0.74 0.69 0.72 0.72 0.65 0.66 0.67 0.66 0.60 0.57 0.56 0.55 0.54 0.50 0.50 0.51 0.55
0.65 0.68 0.67 0.69 0.71 0.70 0.69 0.68 0.66 0.64 0.62 0.61 0.64 0.65 0.67 0.66 0.68 0.73 0.73 0.74 0.77 0.77 0.79 0.82 0.95 1.05 1.12 1.17 1.18 1.20 1.23 1.29 1.33 1.38 1.41 1.39 1.39 1.37 1.36 1.36 1.35 1.32 1.35 1.36 1.36 1.32 1.32 1.29 1.25 1.20 1.17 1.13 1.09 1.06 1.02 0.96 0.92 0.88 0.83 0.79 0.76 0.76 0.78 0.79 0.79 0.78 0.76 0.76 0.74 0.72 0.70 0.69 0.66 0.63 0.61 0.61 0.61 0.61 0.58 0.53 0.50 0.46 0.47 0.55 0.63
0.62 0.65 0.66 0.68 0.68 0.69 0.69 0.68 0.65 0.62 0.62 0.62 0.62 0.65 0.66 0.65 0.66 0.70 0.70 0.73 0.76 0.78 0.79 0.87 0.93 1.01 1.08 1.11 1.12 1.14 1.22 1.22 1.21 1.25 1.30 1.29 1.32 1.30 1.31 1.30 1.28 1.28 1.27 1.26 1.28 1.27 1.28 1.24 1.18 1.10 1.03 0.97 0.95 0.94 0.91 0.89 0.86 0.81 0.77 0.73 0.72 0.71 0.70 0.72 0.74 0.75 0.76 0.74 0.70 0.65 0.61 0.59 0.57 0.56 0.55 0.54 0.56 0.57 0.56 0.53 0.47 0.39 0.42 0.37 0.37
0.58 0.63 0.65 0.68 0.70 0.70 0.68 0.65 0.64 0.60 0.57 0.58 0.62 0.65 0.65 0.64 0.66 0.69 0.69 0.71 0.74 0.73 0.76 0.83 0.91 0.95 1.00 1.05 1.06 1.08 1.11 1.16 1.20 1.22 1.24 1.25 1.27 1.25 1.25 1.25 1.23 1.21 1.20 1.19 1.17 1.16 1.13 1.08 1.02 0.97 0.92 0.87 0.84 0.83 0.83 0.82 0.80 0.76 0.73 0.70 0.69 0.68 0.66 0.69 0.69 0.67 0.64 0.62 0.59 0.57 0.55 0.53 0.52 0.51 0.48 0.46 0.43 0.43 0.46 0.39 0.27 0.35 0.34 0.29 0.32
0.58 0.61 0.65 0.69 0.72 0.72 0.69 0.66 0.64 0.59 0.56 0.58 0.60 0.61 0.63 0.64 0.68 0.70 0.70 0.72 0.72 0.73 0.74 0.80 0.86 0.89 0.91 0.94 0.97 0.98 1.01 1.05 1.08 1.10 1.14 1.18 1.19 1.19 1.18 1.17 1.15 1.12 1.10 1.08 1.06 1.01 0.97 0.93 0.92 0.87 0.81 0.77 0.76 0.76 0.77 0.79 0.78 0.75 0.73 0.68 0.66 0.64 0.64 0.65 0.62 0.60 0.59 0.58 0.56 0.55 0.53 0.50 0.43 0.36 0.29 0.25 0.23 0.28 0.32 0.27 0.31 0.35 0.32 0.32 0.31
0.58 0.59 0.63 0.69 0.72 0.70 0.69 0.66 0.62 0.57 0.54 0.58 0.61 0.63 0.63 0.64 0.67 0.71 0.73 0.74 0.73 0.73 0.75 0.78 0.80 0.83 0.85 0.87 0.91 0.92 0.91 0.91 0.91 0.93 0.96 0.99 1.03 1.04 1.03 1.01 0.98 0.96 0.95 0.92 0.91 0.88 0.86 0.85 0.83 0.81 0.77 0.74 0.73 0.74 0.76 0.78 0.77 0.74 0.72 0.68 0.62 0.60 0.61 0.63 0.61 0.60 0.59 0.57 0.53 0.51 0.46 0.42 0.39 0.32 0.26 0.26 0.30 0.34 0.37 0.36 0.37 0.35 0.33 0.32 0.32
0.58 0.60 0.64 0.73 0.74 0.68 0.65 0.62 0.59 0.58 0.57 0.56 0.59 0.64 0.67 0.65 0.65 0.68 0.71 0.73 0.73 0.73 0.74 0.77 0.76 0.77 0.81 0.80 0.81 0.84 0.85 0.85 0.84 0.84 0.84 0.86 0.88 0.87 0.87 0.83 0.81 0.82 0.83 0.83 0.83 0.83 0.81 0.79 0.76 0.74 0.72 0.71 0.70 0.72 0.75 0.77 0.75 0.72 0.69 0.63 0.59 0.58 0.64 0.63 0.62 0.58 0.52 0.48 0.45 0.42 0.37 0.35 0.34 0.35 0.37 0.40 0.42 0.42 0.42 0.41 0.40 0.36 0.33 0.30 0.30
0.59 0.60 0.64 0.72 0.78 0.72 0.68 0.63 0.61 0.57 0.58 0.57 0.58 0.60 0.64 0.64 0.64 0.66 0.67 0.70 0.71 0.70 0.73 0.75 0.75 0.75 0.77 0.76 0.76 0.78 0.80 0.79 0.79 0.80 0.80 0.81 0.83 0.82 0.82 0.81 0.80 0.78 0.77 0.77 0.76 0.74 0.73 0.72 0.72 0.71 0.70 0.70 0.70 0.71 0.71 0.71 0.70 0.69 0.67 0.64 0.62 0.61 0.59 0.52 0.48 0.47 0.43 0.37 0.35 0.35 0.34 0.36 0.38 0.39 0.40 0.41 0.41 0.42 0.41 0.38 0.36 0.34 0.31 0.28 0.26
0.61 0.61 0.64 0.70 0.71 0.73 0.67 0.63 0.62 0.59 0.58 0.59 0.57 0.58 0.61 0.64 0.65 0.67 0.68 0.68 0.67 0.67 0.69 0.72 0.73 0.73 0.74 0.74 0.73 0.73 0.75 0.76 0.76 0.76 0.77 0.77 0.78 0.80 0.79 0.78 0.78 0.75 0.72 0.72 0.71 0.71 0.70 0.71 0.70 0.70 0.69 0.68 0.67 0.66 0.66 0.65 0.65 0.63 0.59 0.56 0.52 0.50 0.48 0.43 0.42 0.40 0.37 0.34 0.34 0.35 0.38 0.39 0.39 0.40 0.40 0.39 0.37 0.37 0.35 0.32 0.31 0.30 0.29 0.28 0.26
0.61 0.60 0.65 0.68 0.71 0.68 0.67 0.63 0.60 0.60 0.59 0.57 0.55 0.54 0.56 0.60 0.64 0.67 0.67 0.66 0.65 0.64 0.66 0.70 0.71 0.70 0.69 0.70 0.71 0.72 0.72 0.72 0.73 0.74 0.74 0.74 0.74 0.75 0.75 0.75 0.75 0.76 0.72 0.69 0.69 0.69 0.71 0.69 0.67 0.65 0.63 0.61 0.58 0.56 0.54 0.52 0.50 0.48 0.46 0.44 0.40 0.38 0.39 0.36 0.34 0.33 0.35 0.38 0.40 0.40 0.40 0.39 0.38 0.37 0.35 0.34 0.34 0.35 0.34 0.32 0.32 0.31 0.30 0.31 0.30
0.56 0.60 0.65 0.67 0.69 0.66 0.64 0.60 0.60 0.60 0.58 0.55 0.54 0.53 0.53 0.56 0.61 0.64 0.67 0.65 0.63 0.61 0.63 0.66 0.67 0.66 0.65 0.64 0.66 0.67 0.67 0.67 0.69 0.70 0.71 0.71 0.72 0.72 0.73 0.74 0.75 0.74 0.72 0.67 0.65 0.63 0.59 0.56 0.53 0.51 0.49 0.48 0.47 0.45 0.44 0.42 0.38 0.34 0.32 0.30 0.31 0.35 0.36 0.36 0.40 0.42 0.42 0.41 0.40 0.38 0.37 0.37 0.35 0.33 0.33 0.34 0.34 0.33 0.33 0.33 0.34 0.32 0.31 0.31 0.34
0.55 0.58 0.64 0.66 0.66 0.65 0.63 0.58 0.56 0.59 0.60 0.54 0.50 0.51 0.52 0.55 0.58 0.64 0.66 0.64 0.62 0.60 0.61 0.63 0.63 0.63 0.62 0.60 0.60 0.61 0.62 0.63 0.63 0.64 0.65 0.65 0.64 0.64 0.63 0.63 0.61 0.60 0.57 0.55 0.55 0.52 0.49 0.47 0.46 0.45 0.42 0.40 0.37 0.34 0.32 0.32 0.33 0.34 0.36 0.39 0.42 0.43 0.43 0.44 0.44 0.43 0.40 0.38 0.37 0.36 0.34 0.33 0.32 0.33 0.35 0.37 0.35 0.33 0.31 0.32 0.33 0.31 0.29 0.30 0.34
0.54 0.56 0.61 0.63 0.63 0.63 0.61 0.58 0.55 0.56 0.58 0.56 0.52 0.48 0.50 0.56 0.59 0.63 0.64 0.62 0.60 0.59 0.59 0.61 0.62 0.61 0.58 0.55 0.54 0.53 0.53 0.55 0.54 0.55 0.55 0.54 0.53 0.53 0.52 0.52 0.51 0.51 0.50 0.48 0.47 0.46 0.43 0.42 0.41 0.39 0.37 0.37 0.39 0.39 0.38 0.39 0.39 0.40 0.42 0.44 0.47 0.44 0.43 0.42 0.41 0.38 0.35 0.34 0.33 0.33 0.32 0.33 0.34 0.35 0.37 0.36 0.33 0.29 0.30 0.29 0.30 0.29 0.29 0.28 0.28
0.54 0.54 0.55 0.59 0.60 0.59 0.59 0.56 0.53 0.53 0.53 0.53 0.52 0.51 0.46 0.51 0.59 0.61 0.61 0.59 0.57 0.57 0.58 0.59 0.60 0.58 0.51 0.45 0.45 0.44 0.45 0.46 0.47 0.48 0.50 0.50 0.49 0.50 0.50 0.49 0.49 0.47 0.46 0.44 0.42 0.42 0.42 0.42 0.43 0.44 0.45 0.46 0.45 0.41 0.39 0.39 0.39 0.41 0.44 0.43 0.42 0.42 0.41 0.40 0.39 0.37 0.35 0.34 0.34 0.34 0.35 0.36 0.36 0.37 0.36 0.35 0.34 0.34 0.32 0.31 0.31 0.29 0.29 0.28 0.27
0.51 0.51 0.52 0.54 0.56 0.56 0.54 0.54 0.51 0.49 0.48 0.49 0.50 0.49 0.46 0.44 0.50 0.56 0.57 0.56 0.55 0.54 0.55 0.55 0.54 0.51 0.42 0.36 0.37 0.40 0.41 0.44 0.46 0.46 0.48 0.48 0.48 0.49 0.49 0.48 0.48 0.46 0.44 0.45 0.46 0.45 0.45 0.44 0.43 0.42 0.40 0.38 0.38 0.40 0.42 0.43 0.43 0.44 0.42 0.41 0.39 0.38 0.37 0.36 0.37 0.37 0.37 0.37 0.37 0.37 0.37 0.37 0.35 0.34 0.36 0.36 0.34 0.37 0.36 0.34 0.33 0.31 0.30 0.29 0.26
0.45 0.46 0.49 0.49 0.50 0.51 0.50 0.52 0.47 0.48 0.48 0.48 0.50 0.48 0.44 0.42 0.43 0.50 0.58 0.60 0.58 0.56 0.54 0.54 0.51 0.48 0.37 0.31 0.34 0.37 0.40 0.43 0.47 0.53 0.52 0.50 0.51 0.49 0.49 0.52 0.53 0.52 0.51 0.49 0.48 0.48 0.47 0.46 0.44 0.43 0.43 0.43 0.43 0.42 0.42 0.42 0.42 0.42 0.42 0.41 0.40 0.41 0.43 0.43 0.39 0.38 0.39 0.38 0.36 0.36 0.35 0.37 0.36 0.36 0.36 0.35 0.35 0.36 0.38 0.34 0.35 0.32 0.31 0.29 0.26
0.43 0.41 0.41 0.44 0.45 0.45 0.45 0.49 0.47 0.48 0.47 0.45 0.44 0.42 0.40 0.42 0.45 0.45 0.49 0.55 0.56 0.57 0.56 0.53 0.50 0.46 0.36 0.34 0.38 0.39 0.41 0.46 0.48 0.50 0.50 0.50 0.51 0.53 0.55 0.56 0.56 0.53 0.49 0.48 0.50 0.48 0.48 0.46 0.46 0.45 0.44 0.44 0.42 0.42 0.41 0.40 0.40 0.41 0.40 0.39 0.41 0.40 0.39 0.38 0.39 0.39 0.38 0.38 0.38 0.38 0.36 0.37 0.38 0.36 0.36 0.35 0.34 0.36 0.37 0.34 0.34 0.33 0.30 0.28 0.26
0.41 0.38 0.36 0.35 0.37 0.41 0.44 0.48 0.46 0.48 0.47 0.43 0.40 0.34 0.31 0.31 0.33 0.40 0.45 0.46 0.50 0.52 0.52 0.50 0.46 0.44 0.38 0.34 0.38 0.44 0.46 0.46 0.48 0.48 0.48 0.48 0.50 0.51 0.51 0.50 0.49 0.45 0.45 0.48 0.49 0.48 0.45 0.43 0.42 0.42 0.42 0.42 0.41 0.40 0.40 0.40 0.40 0.40 0.40 0.39 0.41 0.37 0.38 0.40 0.40 0.39 0.39 0.39 0.38 0.39 0.39 0.38 0.38 0.37 0.36 0.35 0.33 0.36 0.37 0.36 0.35 0.34 0.30 0.28 0.26
0.39 0.37 0.35 0.33 0.32 0.33 0.43 0.47 0.46 0.46 0.44 0.42 0.40 0.33 0.30 0.27 0.24 0.30 0.37 0.39 0.42 0.43 0.43 0.41 0.40 0.37 0.35 0.38 0.39 0.42 0.45 0.47 0.48 0.49 0.49 0.49 0.49 0.48 0.47 0.46 0.45 0.45 0.45 0.49 0.48 0.46 0.45 0.43 0.42 0.41 0.42 0.41 0.41 0.41 0.41 0.42 0.40 0.41 0.41 0.41 0.42 0.42 0.40 0.42 0.43 0.42 0.42 0.42 0.42 0.40 0.39 0.39 0.38 0.37 0.36 0.36 0.34 0.35 0.35 0.35 0.35 0.33 0.31 0.29 0.26
0.42 0.38 0.35 0.34 0.32 0.29 0.40 0.42 0.41 0.43 0.43 0.41 0.42 0.34 0.31 0.27 0.25 0.23 0.28 0.36 0.38 0.37 0.36 0.36 0.35 0.34 0.34 0.39 0.42 0.44 0.45 0.47 0.48 0.49 0.49 0.49 0.49 0.48 0.48 0.47 0.46 0.46 0.46 0.45 0.45 0.44 0.44 0.44 0.43 0.43 0.42 0.42 0.42 0.42 0.42 0.42 0.43 0.43 0.43 0.43 0.44 0.46 0.47 0.46 0.45 0.43 0.42 0.42 0.42 0.42 0.42 0.40 0.39 0.38 0.38 0.38 0.36 0.34 0.35 0.35 0.34 0.33 0.31 0.28 0.26
0.45 0.42 0.37 0.35 0.33 0.30 0.35 0.40 0.37 0.39 0.41 0.39 0.41 0.38 0.33 0.29 0.27 0.24 0.23 0.26 0.28 0.30 0.32 0.33 0.33 0.34 0.38 0.41 0.44 0.46 0.47 0.48 0.49 0.49 0.49 0.48 0.48 0.48 0.47 0.48 0.48 0.48 0.46 0.45 0.46 0.44 0.44 0.44 0.44 0.44 0.44 0.43 0.44 0.44 0.43 0.44 0.44 0.45 0.45 0.46 0.46 0.47 0.48 0.51 0.50 0.46 0.44 0.43 0.42 0.42 0.41 0.41 0.40 0.39 0.39 0.38 0.38 0.37 0.36 0.35 0.34 0.33 0.31 0.29 0.26
0.48 0.45 0.39 0.37 0.34 0.32 0.32 0.38 0.37 0.36 0.39 0.37 0.37 0.38 0.37 0.33 0.31 0.26 0.24 0.21 0.21 0.22 0.24 0.29 0.34 0.38 0.40 0.42 0.45 0.47 0.48 0.49 0.49 0.49 0.49 0.48 0.48 0.47 0.47 0.45 0.43 0.44 0.44 0.45 0.47 0.47 0.46 0.44 0.45 0.45 0.45 0.45 0.45 0.45 0.45 0.46 0.46 0.46 0.46 0.47 0.47 0.47 0.47 0.49 0.51 0.50 0.48 0.47 0.46 0.45 0.44 0.41 0.41 0.40 0.39 0.38 0.38 0.36 0.35 0.35 0.35 0.34 0.32 0.29 0.28
0.51 0.49 0.43 0.39 0.36 0.35 0.33 0.36 0.37 0.37 0.39 0.38 0.38 0.37 0.39 0.37 0.35 0.30 0.28 0.26 0.25 0.25 0.29 0.32 0.35 0.38 0.42 0.44 0.46 0.47 0.47 0.48 0.48 0.48 0.48 0.49 0.48 0.48 0.44 0.43 0.43 0.43 0.43 0.43 0.45 0.47 0.47 0.47 0.47 0.48 0.48 0.48 0.48 0.47 0.48 0.48 0.47 0.48 0.48 0.47 0.47 0.47 0.47 0.46 0.47 0.49 0.49 0.48 0.47 0.45 0.44 0.42 0.42 0.40 0.39 0.39 0.38 0.37 0.37 0.37 0.36 0.35 0.33 0.31 0.29
0.52 0.51 0.48 0.43 0.41 0.39 0.38 0.37 0.37 0.39 0.39 0.39 0.38 0.37 0.39 0.39 0.39 0.37 0.34 0.31 0.30 0.31 0.34 0.36 0.38 0.40 0.42 0.45 0.47 0.47 0.48 0.48 0.48 0.48 0.49 0.49 0.49 0.48 0.46 0.47 0.49 0.49 0.48 0.49 0.49 0.48 0.47 0.47 0.47 0.48 0.48 0.48 0.48 0.49 0.48 0.48 0.49 0.50 0.49 0.47 0.47 0.46 0.46 0.47 0.47 0.45 0.44 0.43 0.43 0.43 0.43 0.42 0.42 0.42 0.41 0.39 0.38 0.37 0.38 0.37 0.36 0.35 0.34 0.31 0.29
0.54 0.52 0.51 0.48 0.45 0.44 0.42 0.39 0.39 0.38 0.38 0.38 0.38 0.38 0.39 0.40 0.39 0.39 0.38 0.35 0.34 0.35 0.36 0.39 0.39 0.38 0.37 0.41 0.46 0.46 0.46 0.48 0.48 0.48 0.48 0.48 0.48 0.46 0.46 0.48 0.51 0.49 0.47 0.48 0.48 0.49 0.49 0.49 0.50 0.50 0.50 0.50 0.50 0.50 0.50 0.50 0.50 0.51 0.51 0.52 0.51 0.49 0.46 0.44 0.42 0.40 0.39 0.39 0.41 0.43 0.44 0.44 0.43 0.43 0.42 0.40 0.38 0.38 0.38 0.38 0.37 0.35 0.34 0.32 0.30
0.55 0.54 0.53 0.51 0.49 0.47 0.47 0.44 0.42 0.38 0.37 0.38 0.39 0.40 0.40 0.40 0.39 0.38 0.38 0.38 0.34 0.33 0.36 0.41 0.41 0.39 0.39 0.43 0.44 0.46 0.45 0.44 0.43 0.43 0.45 0.46 0.47 0.47 0.47 0.48 0.49 0.49 0.49 0.49 0.50 0.50 0.50 0.50 0.50 0.51 0.51 0.50 0.50 0.51 0.50 0.50 0.51 0.51 0.51 0.50 0.49 0.49 0.49 0.47 0.43 0.43 0.43 0.42 0.41 0.41 0.43 0.43 0.44 0.43 0.42 0.40 0.39 0.39 0.39 0.39 0.38 0.35 0.32 0.29 0.28
0.54 0.55 0.53 0.52 0.50 0.49 0.48 0.47 0.46 0.42 0.39 0.36 0.37 0.39 0.39 0.38 0.38 0.38 0.37 0.37 0.36 0.33 0.33 0.38 0.39 0.38 0.41 0.43 0.44 0.45 0.42 0.42 0.42 0.44 0.45 0.45 0.46 0.47 0.48 0.49 0.50 0.50 0.49 0.50 0.51 0.51 0.51 0.52 0.53 0.54 0.54 0.52 0.51 0.51 0.51 0.50 0.50 0.50 0.50 0.48 0.46 0.44 0.43 0.43 0.42 0.41 0.41 0.42 0.42 0.42 0.42 0.42 0.42 0.42 0.41 0.41 0.41 0.41 0.40 0.38 0.35 0.32 0.31 0.29 0.29
0.54 0.55 0.54 0.52 0.51 0.49 0.48 0.47 0.46 0.45 0.44 0.42 0.41 0.40 0.38 0.36 0.36 0.37 0.38 0.37 0.38 0.36 0.33 0.35 0.38 0.39 0.42 0.44 0.47 0.45 0.42 0.42 0.45 0.46 0.48 0.49 0.49 0.50 0.50 0.51 0.51 0.51 0.52 0.51 0.52 0.53 0.54 0.53 0.54 0.54 0.54 0.53 0.52 0.51 0.50 0.49 0.48 0.46 0.46 0.46 0.44 0.41 0.40 0.41 0.42 0.40 0.41 0.41 0.40 0.42 0.42 0.42 0.42 0.42 0.40 0.41 0.41 0.40 0.39 0.36 0.34 0.33 0.32 0.30 0.30
0.55 0.55 0.54 0.52 0.52 0.51 0.49 0.47 0.46 0.46 0.45 0.45 0.43 0.42 0.40 0.37 0.35 0.35 0.36 0.37 0.37 0.37 0.34 0.33 0.36 0.40 0.42 0.45 0.47 0.46 0.44 0.45 0.48 0.48 0.50 0.51 0.52 0.53 0.53 0.53 0.53 0.53 0.53 0.54 0.54 0.54 0.55 0.55 0.55 0.54 0.53 0.53 0.51 0.50 0.50 0.48 0.47 0.45 0.45 0.45 0.44 0.42 0.39 0.38 0.42 0.41 0.39 0.40 0.41 0.41 0.42 0.42 0.41 0.41 0.42 0.41 0.39 0.37 0.35 0.34 0.32 0.31 0.30 0.30 0.29
0.57 0.57 0.56 0.54 0.52 0.51 0.50 0.49 0.47 0.46 0.44 0.44 0.43 0.42 0.41 0.39 0.37 0.34 0.34 0.36 0.37 0.36 0.34 0.32 0.33 0.36 0.41 0.43 0.45 0.46 0.43 0.45 0.48 0.50 0.51 0.52 0.53 0.53 0.54 0.54 0.54 0.54 0.55 0.56 0.57 0.57 0.57 0.56 0.55 0.55 0.54 0.53 0.53 0.52 0.50 0.49 0.48 0.45 0.44 0.44 0.43 0.43 0.41 0.41 0.42 0.41 0.41 0.41 0.41 0.40 0.42 0.42 0.42 0.41 0.40 0.39 0.38 0.36 0.34 0.32 0.32 0.31 0.30 0.30 0.30
0.60 0.60 0.60 0.58 0.55 0.53 0.51 0.50 0.49 0.47 0.46 0.45 0.46 0.45 0.43 0.40 0.37 0.36 0.35 0.35 0.35 0.36 0.35 0.34 0.33 0.33 0.38 0.42 0.44 0.43 0.42 0.44 0.47 0.50 0.52 0.52 0.53 0.54 0.54 0.54 0.54 0.55 0.57 0.58 0.58 0.58 0.58 0.57 0.56 0.55 0.56 0.56 0.55 0.54 0.52 0.52 0.50 0.48 0.46 0.45 0.43 0.42 0.44 0.43 0.42 0.42 0.42 0.42 0.42 0.41 0.41 0.41 0.40 0.39 0.38 0.37 0.36 0.34 0.33 0.32 0.31 0.31 0.31 0.30 0.29
0.62 0.61 0.60 0.59 0.59 0.57 0.56 0.55 0.53 0.52 0.50 0.49 0.48 0.48 0.47 0.44 0.40 0.36 0.35 0.35 0.36 0.35 0.36 0.35 0.35 0.35 0.36 0.42 0.42 0.42 0.43 0.44 0.47 0.51 0.52 0.53 0.53 0.53 0.54 0.54 0.55 0.57 0.58 0.57 0.58 0.59 0.58 0.58 0.57 0.57 0.56 0.56 0.57 0.55 0.54 0.54 0.53 0.51 0.50 0.49 0.47 0.44 0.45 0.46 0.46 0.45 0.45 0.44 0.43 0.42 0.41 0.41 0.40 0.39 0.37 0.36 0.35 0.34 0.33 0.33 0.33 0.32 0.31 0.30 0.29
0.61 0.62 0.60 0.60 0.59 0.59 0.59 0.59 0.58 0.57 0.55 0.53 0.51 0.49 0.47 0.46 0.44 0.40 0.35 0.34 0.35 0.36 0.36 0.37 0.37 0.36 0.37 0.41 0.44 0.43 0.43 0.45 0.48 0.51 0.52 0.54 0.54 0.54 0.54 0.55 0.56 0.59 0.59 0.58 0.60 0.60 0.60 0.60 0.59 0.58 0.57 0.56 0.57 0.56 0.56 0.55 0.54 0.54 0.53 0.52 0.51 0.51 0.51 0.50 0.50 0.48 0.47 0.46 0.44 0.43 0.42 0.39 0.38 0.37 0.36 0.34 0.32 0.32 0.32 0.32 0.31 0.31 0.30 0.29 0.28
0.63 0.62 0.61 0.61 0.60 0.60 0.60 0.61 0.60 0.59 0.59 0.57 0.56 0.53 0.51 0.49 0.46 0.44 0.40 0.34 0.31 0.33 0.35 0.37 0.37 0.37 0.39 0.42 0.44 0.45 0.45 0.46 0.49 0.51 0.52 0.53 0.53 0.54 0.55 0.57 0.59 0.60 0.60 0.61 0.62 0.61 0.62 0.62 0.61 0.60 0.59 0.58 0.58 0.57 0.56 0.56 0.56 0.56 0.55 0.54 0.54 0.53 0.52 0.51 0.50 0.50 0.49 0.48 0.46 0.43 0.40 0.38 0.36 0.35 0.35 0.36 0.34 0.34 0.33 0.32 0.32 0.31 0.30 0.30 0.29
0.64 0.63 0.62 0.62 0.61 0.60 0.60 0.61 0.60 0.60 0.60 0.59 0.58 0.57 0.55 0.54 0.51 0.48 0.46 0.41 0.34 0.30 0.32 0.35 0.37 0.39 0.40 0.42 0.44 0.46 0.47 0.48 0.50 0.52 0.54 0.54 0.54 0.55 0.57 0.59 0.61 0.60 0.60 0.61 0.61 0.61 0.63 0.62 0.62 0.62 0.60 0.58 0.58 0.58 0.57 0.57 0.57 0.57 0.56 0.55 0.54 0.52 0.51 0.52 0.52 0.51 0.49 0.47 0.46 0.43 0.42 0.39 0.37 0.36 0.36 0.35 0.34 0.34 0.33 0.32 0.32 0.31 0.30 0.29 0.29
0.64 0.64 0.63 0.63 0.62 0.62 0.61 0.61 0.61 0.60 0.60 0.60 0.60 0.59 0.58 0.57 0.55 0.53 0.50 0.47 0.42 0.34 0.31 0.33 0.36 0.39 0.42 0.42 0.43 0.45 0.47 0.49 0.51 0.52 0.53 0.54 0.55 0.57 0.60 0.62 0.60 0.60 0.59 0.59 0.60 0.61 0.63 0.63 0.64 0.63 0.61 0.60 0.60 0.59 0.58 0.58 0.57 0.57 0.55 0.53 0.52 0.53 0.53 0.52 0.51 0.49 0.47 0.47 0.45 0.44 0.41 0.39 0.38 0.37 0.37 0.36 0.35 0.35 0.34 0.33 0.32 0.31 0.30 0.29 0.29
0.63 0.63 0.63 0.63 0.62 0.62 0.63 0.63 0.63 0.63 0.62 0.62 0.61 0.60 0.59 0.59 0.57 0.56 0.54 0.52 0.47 0.41 0.35 0.33 0.34 0.39 0.42 0.43 0.43 0.44 0.46 0.48 0.50 0.52 0.54 0.55 0.56 0.59 0.61 0.61 0.59 0.59 0.58 0.59 0.60 0.62 0.64 0.64 0.65 0.63 0.62 0.61 0.61 0.61 0.60 0.59 0.58 0.56 0.55 0.53 0.53 0.53 0.53 0.52 0.50 0.49 0.48 0.47 0.46 0.43 0.42 0.40 0.39 0.39 0.38 0.37 0.36 0.36 0.35 0.33 0.32 0.31 0.30 0.29 0.28
0.64 0.64 0.64 0.63 0.63 0.63 0.63 0.63 0.63 0.63 0.63 0.62 0.62 0.61 0.60 0.59 0.59 0.58 0.56 0.54 0.51 0.46 0.40 0.35 0.34 0.37 0.41 0.43 0.43 0.44 0.46 0.49 0.52 0.54 0.55 0.56 0.59 0.60 0.60 0.59 0.59 0.59 0.59 0.61 0.62 0.64 0.65 0.66 0.65 0.64 0.63 0.63 0.63 0.62 0.60 0.60 0.59 0.57 0.55 0.55 0.55 0.54 0.53 0.53 0.51 0.50 0.49 0.47 0.46 0.44 0.42 0.41 0.39 0.38 0.37 0.36 0.35 0.34 0.33 0.31 0.30 0.29 0.29 0.28 0.28
Wind_Speed
24 25 25 24 24 24 24 24 24 24 24 24 25 25 26 26 26 27 27 27 27 27 28 29 29 30 31 31 31 31 33 34 34 34 33 33 34 34 32 31 30 29 28 28 27 26 25 24 23 22 21 21 20 19 19 19 18 18 18 18 18 18 18 18 18 19 19 18 18 18 18 18 18 18 18 18 18 18 18 18 18 18 18 18 18
23 24 24 24 25 25 25 25 25 25 25 25 25 25 25 26 26 26 27 27 27 27 28 29 29 30 31 31 32 32 32 34 35 35 34 34 34 34 34 33 31 30 29 28 27 26 26 25 24 23 23 22 21 20 20 19 19 19 19 19 19 19 19 19 19 19 19 19 19 19 19 19 19 19 19 18 18 18 18 18 18 18 18 19 19
20 22 23 24 24 25 25 25 25 25 25 26 26 26 26 26 26 26 27 27 27 27 28 28 29 30 31 31 32 32 32 33 34 35 35 35 34 34 35 34 32 31 30 29 28 27 26 26 25 24 24 23 22 21 21 20 20 20 20 20 20 20 19 20 20 20 20 20 20 20 19 19 19 19 19 18 18 18 18 18 18 18 19 19 19
18 19 20 22 23 24 24 25 25 25 25 26 26 26 26 26 26 26 26 26 27 27 28 28 29 30 31 31 31 32 33 33 34 34 34 35 34 35 35 34 33 32 31 30 28 27 26 26 26 25 24 24 23 22 21 21 21 20 20 20 20 20 20 20 21 21 21 21 20 19 19 19 19 19 19 18 18 18 18 19 19 19 19 20 19
18 18 19 20 21 22 23 24 25 25 25 25 26 26 26 26 26 26 26 26 27 27 28 28 29 30 31 31 32 32 33 33 34 33 33 34 35 35 35 35 34 33 32 31 30 28 27 27 26 26 25 24 23 22 21 21 21 20 20 20 20 20 20 20 21 21 20 20 20 19 19 19 19 19 18 18 18 18 19 19 20 19 20 20 20
18 19 19 20 21 22 23 23 24 25 25 25 25 26 26 26 26 26 26 26 27 27 28 28 29 30 30 31 32 32 33 33 34 34 33 34 34 34 35 35 34 33 32 32 31 29 28 28 26 26 25 24 23 22 22 21 21 21 20 20 20 20 20 20 20 20 19 19 19 19 19 19 19 18 18 17 18 19 19 20 20 19 20 21 20
19 20 20 20 21 21 22 22 23 24 24 24 25 25 25 26 26 25 25 25 26 27 28 28 29 29 30 31 31 32 32 33 33 33 33 34 35 34 34 35 35 34 33 33 32 30 29 28 27 26 25 24 23 22 22 21 21 20 20 20 19 19 19 19 19 19 19 19 19 19 19 19 19 18 18 18 19 19 20 20 20 20 21 21 21
20 20 20 21 21 21 21 21 22 22 23 23 23 24 24 25 25 25 25 25 25 26 27 28 28 29 29 30 31 31 31 32 33 33 33 34 35 35 34 35 35 35 34 33 31 30 29 28 27 25 24 23 23 22 21 20 20 20 20 19 19 19 19 19 19 19 19 19 19 19 19 19 19 19 19 19 20 20 20 21 21 21 22 22 21
20 20 21 21 21 21 21 20 21 21 22 22 22 23 24 24 24 25 25 24 25 25 25 26 27 27 28 30 30 29 30 31 32 33 33 33 34 35 34 34 35 35 34 32 31 29 28 27 26 24 23 23 22 21 20 19 19 20 19 19 19 19 19 19 19 19 19 19 19 19 20 20 19 19 19 20 20 20 21 21 22 22 23 23 22
19 20 20 20 20 21 21 21 21 21 22 22 22 22 23 23 24 24 24 24 24 24 24 24 24 25 26 28 29 28 28 29 31 32 33 33 34 34 34 33 34 34 34 32 30 29 28 27 26 24 23 22 22 21 20 19 19 19 19 19 19 19 19 20 20 20 20 20 20 20 20 20 19 19 20 20 20 21 21 22 22 23 23 23 23
18 18 19 19 19 20 20 21 21 21 21 21 21 21 22 23 23 23 23 23 23 23 22 22 22 23 24 27 28 29 29 29 30 32 33 34 34 34 33 33 32 33 33 31 30 28 27 26 25 24 23 22 21 21 20 19 19 19 19 19 19 19 20 20 20 20 20 21 21 20 20 20 19 19 20 20 21 21 22 22 22 23 23 23 23
17 18 18 18 18 19 19 20 21 21 21 21 21 21 21 22 23 23 23 22 22 22 21 19 18 19 22 25 26 27 28 29 29 30 31 33 34 33 33 32 32 31 30 30 29 28 28 27 25 24 23 22 21 21 20 20 19 19 19 19 19 19 19 20 20 20 20 20 20 19 20 20 20 20 20 21 21 21 21 21 22 22 22 23 23
17 17 17 17 18 18 19 20 20 20 20 20 20 21 21 22 22 22 22 22 21 21 20 18 16 16 17 21 23 24 25 27 28 28 29 30 31 33 34 33 32 31 29 29 29 28 27 26 25 24 23 22 21 22 21 20 19 19 19 19 19 19 19 18 19 19 19 19 19 19 19 20 20 20 20 21 21 21 21 21 21 22 22 23 23
16 17 17 17 17 18 18 19 20 20 19 19 19 20 20 21 21 21 21 20 20 19 19 18 17 16 15 17 19 20 21 23 24 25 26 27 28 30 32 32 31 30 28 27 27 26 26 25 25 23 23 22 22 22 21 21 20 19 19 19 19 18 18 17 18 18 18 18 18 18 19 19 19 19 20 20 20 20 20 21 21 22 23 23 23
16 17 17 17 17 17 17 18 18 19 19 18 18 19 19 20 20 20 19 18 18 18 18 17 17 17 16 15 15 17 18 19 21 22 23 24 25 26 27 28 28 28 27 26 25 25 24 24 23 23 23 23 22 22 21 20 20 19 19 19 18 18 18 17 17 17 18 18 18 18 18 18 18 19 19 20 20 21 21 21 22 23 23 23 23
16 16 16 16 16 16 17 17 17 18 18 18 17 17 18 19 19 18 18 17 17 17 16 16 15 17 17 17 16 16 16 17 19 21 20 21 23 24 25 26 26 26 25 25 24 23 22 21 21 22 22 22 21 21 21 20 19 19 18 18 18 18 17 17 17 16 16 17 17 17 17 17 17 18 19 19 20 21 21 22 22 23 23 23 23
15 15 16 16 16 16 16 16 16 16 16 17 17 17 17 18 17 17 17 17 16 15 15 14 14 14 16 18 17 16 16 15 17 19 20 21 22 24 23 24 24 24 23 23 22 21 21 20 20 20 20 20 20 20 20 20 19 19 18 18 18 17 17 17 16 15 15 15 15 15 16 16 16 17 18 19 20 20 21 21 21 22 22 23 23
15 15 16 16 16 16 15 15 15 15 15 16 17 17 17 17 17 16 16 16 16 15 15 14 13 12 15 17 17 16 16 15 16 18 19 20 21 22 23 22 22 22 22 21 21 21 20 19 19 19 18 18 18 19 19 19 19 18 18 18 17 17 17 17 16 15 15 15 15 15 15 16 16 17 18 18 19 20 20 20 21 21 22 22 23
15 15 15 16 15 15 14 14 14 14 14 15 16 16 16 17 17 17 16 16 16 16 15 14 12 12 14 16 16 15 15 15 16 16 18 19 20 21 22 22 22 22 21 21 20 20 19 18 17 17 17 17 18 18 18 18 18 18 17 17 16 16 16 16 16 15 15 15 15 15 16 16 17 17 18 18 19 19 20 21 21 21 21 22 22
15 15 14 14 14 14 14 13 13 13 14 14 15 15 15 16 17 17 17 16 16 16 16 15 13 12 14 16 15 15 15 16 16 17 17 18 19 19 19 20 20 21 21 20 20 19 18 18 17 16 16 16 16 17 16 16 16 16 16 16 15 15 15 15 15 15 15 15 15 15 16 16 17 18 18 19 19 20 20 20 21 21 21 21 22
14 14 14 13 13 14 14 13 13 13 14 14 15 15 15 16 16 16 17 17 17 16 15 15 13 13 14 15 15 15 15 15 16 16 16 17 17 17 17 18 19 19 19 19 18 17 17 17 16 15 15 15 15 15 15 15 15 15 15 14 14 14 14 14 14 14 14 14 15 16 16 17 18 18 18 19 19 20 20 20 21 21 21 21 21
13 13 13 13 13 13 13 13 13 13 14 14 15 15 15 15 16 16 16 16 16 15 13 13 13 12 13 14 14 15 16 15 15 15 15 16 16 16 16 17 18 18 18 18 17 16 16 15 15 14 14 13 13 13 13 13 13 13 13 13 13 13 13 13 14 14 15 15 16 16 17 17 18 18 18 19 19 19 20 20 20 20 20 20 20
12 12 12 12 12 12 13 13 13 13 13 14 14 15 15 15 15 16 16 16 16 15 13 12 12 11 12 14 15 15 16 16 15 15 15 16 16 16 16 16 16 16 17 16 15 15 14 14 13 13 12 12 12 12 12 12 12 12 12 12 13 13 13 14 14 15 15 15 16 16 17 17 18 18 18 18 19 19 19 19 19 19 19 19 20
11 11 11 12 12 12 13 13 13 13 13 13 14 15 15 16 16 16 16 17 17 15 13 12 11 10 12 14 15 15 16 16 15 15 15 15 15 15 15 15 14 14 14 14 14 14 13 13 12 12 11 11 11 11 11 11 11 12 12 12 13 13 13 14 14 15 15 15 16 16 17 17 17 18 18 18 18 18 18 19 19 19 19 20 20
11 11 11 11 12 12 12 13 13 14 13 13 14 14 15 15 15 16 17 17 17 17 14 12 11 11 11 13 15 15 15 15 15 15 15 15 14 14 14 13 13 13 13 12 12 12 12 12 12 12 11 11 11 11 11 11 11 11 12 12 13 13 14 14 15 15 15 16 16 16 17 17 17 17 17 17 17 18 18 18 18 19 19 20 20
10 10 10 10 11 12 12 12 13 13 13 13 13 14 14 15 15 16 17 18 18 17 15 13 12 11 12 13 14 15 14 14 14 15 15 14 14 14 13 13 12 12 12 12 12 12 12 12 12 12 11 11 11 11 11 11 11 12 12 13 13 14 14 14 15 15 15 15 16 16 16 16 17 17 17 17 17 17 17 18 18 19 20 20 21
9 10 10 10 10 11 12 12 12 13 13 13 13 13 14 14 15 15 17 18 18 17 16 14 12 12 12 13 14 15 15 15 15 15 14 14 14 14 13 13 13 12 12 12 12 12 12 12 11 11 11 11 11 11 11 11 12 12 13 13 13 13 14 14 14 14 15 15 15 15 16 16 16 16 16 16 17 17 18 19 19 20 21 22 22
9 9 10 10 10 11 11 11 12 12 12 12 13 13 13 13 14 15 16 17 17 17 17 15 13 12 12 13 14 15 15 15 15 15 14 14 14 14 13 13 13 13 12 12 12 12 12 11 11 11 11 11 11 12 12 12 13 13 13 13 13 13 13 13 13 14 14 15 15 15 15 15 15 16 16 17 17 18 19 20 21 22 23 23 24
8 9 10 10 10 10 11 11 12 12 13 12 12 12 12 12 13 14 15 16 16 16 16 15 14 13 12 13 14 14 15 15 15 15 14 14 14 14 13 13 13 13 13 13 12 12 12 12 12 12 12 12 12 12 13 13 13 13 13 13 13 13 13 14 14 14 14 14 14 15 15 15 16 16 17 18 19 19 20 21 22 23 24 25 26
7 8 9 10 10 10 11 11 12 12 12 12 12 12 12 12 12 13 14 15 15 15 15 15 14 14 13 13 13 13 14 14 15 14 14 13 13 13 13 13 13 13 13 13 12 12 12 13 13 13 13 13 12 12 12 12 12 12 12 13 13 13 14 14 14 14 14 14 15 15 15 16 17 17 18 19 20 21 22 23 24 24 25 26 27
7 7 8 9 10 10 11 11 12 12 12 12 12 12 12 12 12 12 13 13 14 14 14 14 14 13 13 13 13 13 13 14 14 14 13 13 12 12 12 12 12 13 13 12 12 12 12 12 12 12 12 12 12 12 12 12 13 13 13 13 13 13 14 14 14 14 15 15 15 16 17 17 18 19 20 21 22 22 23 24 25 26 27 28 28
7 7 8 8 9 10 11 11 12 12 12 12 12 12 12 12 12 12 12 12 13 13 13 13 13 13 13 13 13 13 13 13 14 13 13 12 12 11 11 11 11 12 12 11 11 12 12 11 11 11 12 12 12 12 12 13 13 13 13 13 14 14 14 14 14 15 15 16 17 18 18 19 20 21 22 22 23 24 25 26 27 27 28 29 30
8 8 8 8 9 10 10 11 12 12 12 13 13 13 12 12 12 12 12 12 12 13 13 13 13 14 13 13 13 13 13 14 13 13 13 12 12 11 11 11 11 11 11 11 11 11 11 11 11 11 12 12 12 12 13 13 13 13 13 13 14 14 15 15 16 16 17 18 19 19 20 21 21 22 23 24 25 25 26 27 28 28 29 30 31
10 9 9 9 9 10 10 11 11 12 12 13 13 13 13 12 12 12 12 13 13 13 13 14 14 14 14 14 13 14 14 14 14 13 13 12 12 12 11 11 11 11 11 12 12 12 11 11 12 12 12 12 13 12 12 13 13 13 13 14 14 15 16 17 18 18 19 20 20 21 21 22 23 24 25 25 26 27 27 28 29 29 30 31 32
11 10 10 10 10 10 11 11 12 12 12 13 13 13 13 12 12 12 13 13 13 14 14 15 15 15 15 15 14 15 15 15 14 14 13 13 12 12 12 12 12 12 12 12 13 12 12 12 12 12 12 12 12 12 12 13 13 14 14 15 16 17 17 18 19 20 21 22 22 23 23 23 24 25 26 26 27 28 28 29 29 30 31 32 33
12 11 11 11 10 11 11 12 12 12 13 13 13 13 13 13 13 13 13 13 14 14 15 15 16 16 16 15 15 15 15 15 15 14 14 13 13 13 13 13 13 13 13 13 13 12 12 12 12 12 12 12 12 12 13 13 14 15 15 16 17 18 19 20 21 22 22 23 24 24 25 25 25 26 26 27 28 28 29 29 30 31 32 33 34
12 12 11 11 11 11 11 12 12 13 13 13 13 13 13 13 13 13 13 14 14 14 15 15 16 16 16 16 16 16 16 16 15 14 14 14 14 14 14 13 13 13 13 12 12 12 12 12 12 12 12 12 13 13 14 15 15 16 17 18 19 20 20 21 22 23 24 24 25 25 25 26 26 27 27 27 28 29 30 31 31 32 33 33 34
13 12 12 12 12 12 12 12 13 13 13 13 13 13 13 13 13 13 13 14 14 14 15 15 16 16 17 17 17 17 16 16 15 15 14 14 14 14 14 14 13 12 12 12 11 11 12 12 12 12 12 13 14 15 15 16 17 18 18 19 20 21 21 22 23 24 25 25 26 26 26 26 26 27 27 28 29 30 31 31 32 32 33 34 34
13 13 13 13 13 12 12 13 13 13 14 13 13 13 14 14 14 14 14 14 14 15 15 15 16 16 17 17 17 17 17 16 16 15 15 15 15 15 14 14 13 12 12 12 12 12 12 13 13 13 14 14 15 16 16 17 18 19 20 20 21 21 22 23 24 24 25 25 25 25 26 26 27 27 28 29 30 30 31 32 32 33 34 35 35
12 12 13 13 13 13 13 13 13 13 14 14 14 14 14 14 14 14 14 14 14 15 15 15 16 16 17 17 17 18 17 17 16 16 15 15 15 15 14 14 13 13 13 13 13 13 13 14 14 15 15 15 16 17 18 19 19 20 21 21 22 23 23 24 24 25 25 25 25 25 26 27 28 28 29 30 30 31 32 33 34 34 35 36 36
12 12 13 14 14 13 13 13 13 13 14 14 14 14 14 14 14 14 15 15 15 15 15 16 16 16 17 17 17 18 17 16 15 15 15 15 15 15 15 15 14 14 14 14 14 14 15 15 16 16 17 17 17 18 19 20 20 21 22 22 23 24 24 24 25 25 25 25 26 26 27 27 28 29 29 30 31 32 33 34 34 35 36 37 37
12 12 12 13 14 14 13 13 13 13 13 13 13 14 14 14 15 15 15 15 15 15 16 16 16 16 17 17 17 18 18 16 15 15 15 15 15 15 15 15 15 15 15 15 15 16 17 17 17 18 18 18 19 19 20 21 21 22 22 23 23 24 24 24 24 25 25 26 26 27 27 28 29 29 30 31 32 33 34 35 36 36 37 38 38
13 12 12 13 14 14 14 14 14 14 13 13 13 13 14 14 15 15 15 16 16 16 16 16 17 17 17 18 18 19 18 17 17 16 16 16 16 16 16 16 16 16 16 17 17 18 18 18 19 19 19 20 20 21 21 22 22 23 23 23 23 24 24 24 24 25 26 26 26 27 27 28 29 30 31 32 33 34 35 36 37 37 38 38 39
13 13 13 13 13 14 14 14 14 14 14 14 14 14 14 14 15 15 16 16 16 17 17 17 17 18 18 18 19 20 19 19 18 17 17 17 17 17 17 17 17 17 18 18 19 19 19 20 20 20 20 21 21 22 22 23 23 23 23 23 24 24 24 24 25 25 25 26 26 27 28 29 31 32 33 34 35 36 37 37 38 38 39 40 41
14 13 14 14 14 14 15 15 15 15 15 15 15 15 15 15 15 15 16 17 17 17 18 18 18 19 19 19 19 20 20 20 19 19 19 18 18 18 18 18 18 19 19 20 20 20 21 21 21 21 22 22 22 22 23 23 23 23 23 23 24 24 24 25 25 25 26 26 27 29 30 31 32 34 35 35 36 37 38 38 39 40 40 41 41
14 14 14 14 14 15 15 15 15 16 16 16 16 16 16 16 16 17 17 17 18 18 19 19 19 20 20 20 20 21 21 21 21 20 20 20 20 20 20 20 20 20 21 21 21 22 22 22 22 23 23 23 23 23 23 23 23 24 24 24 24 24 24 25 25 25 26 27 28 30 31 32 34 35 36 36 37 38 39 39 40 40 41 42 42
15 15 15 15 15 15 15 16 16 16 17 17 17 17 18 18 18 18 18 19 19 20 20 20 20 21 21 21 21 21 22 22 22 22 22 22 22 22 22 21 21 22 22 22 23 23 23 23 23 23 23 23 23 23 23 23 23 23 24 24 24 24 24 25 25 26 27 28 30 31 32 33 34 35 36 37 38 38 39 40 40 41 41 42 43
17 17 16 16 16 16 16 16 16 17 17 17 18 18 18 19 19 20 20 20 21 21 22 22 22 22 22 23 23 22 22 23 23 23 23 23 23 23 23 23 23 23 24 24 24 24 24 24 24 24 24 24 23 23 23 23 23 23 23 24 24 24 25 25 26 27 29 30 31 32 33 34 35 36 37 38 38 39 39 40 41 41 42 43 44
18 18 18 18 18 17 17 17 17 18 18 18 18 19 19 20 20 21 21 21 22 22 23 23 23 23 23 24 24 24 23 24 24 24 24 24 24 24 24 24 24 25 25 25 25 25 24 24 24 24 24 24 23 23 23 23 23 23 24 24 24 25 26 27 28 29 31 32 33 34 35 36 37 37 38 38 39 39 40 41 42 43 43 44 44
18 18 18 18 19 19 19 19 19 19 20 20 20 20 21 21 21 22 22 23 23 23 24 24 25 25 25 25 25 25 25 25 25 25 25 25 25 24 24 24 25 24 24 24 24 24 24 25 25 24 24 24 23 23 23 23 24 24 25 25 25 26 27 29 30 31 32 34 35 35 36 37 38 38 39 39 40 40 41 42 43 43 44 44 45
19 19 19 20 20 20 20 20 20 20 21 21 21 22 22 23 23 23 23 24 24 25 25 25 26 26 26 26 26 26 26 26 26 26 26 26 25 25 25 25 25 24 24 24 24 24 24 24 24 24 24 24 24 23 23 24 25 25 25 25 26 28 29 30 32 33 34 35 36 37 38 38 39 39 39 40 40 41 42 43 43 44 44 45 45
Wind_Direction
259 257 255 254 253 252 252 252 253 253 252 251 249 248 248 247 248 248 247 247 247 246 246 245 244 243 242 241 240 239 238 236 234 233 232 230 229 229 228 228 228 230 231 232 233 233 234 235 238 240 242 244 246 248 251 252 254 256 259 262 264 265 266 268 271 274 277 279 280 280 281 283 284 284 285 286 288 291 292 293 294 295 296 296 298
259 257 255 253 252 251 251 252 252 253 253 251 250 249 249 248 248 248 248 247 247 247 246 246 245 243 242 241 240 239 238 236 234 233 231 230 228 227 228 228 228 229 230 232 232 233 234 235 237 239 241 243 246 248 251 253 254 257 260 263 264 265 265 267 270 273 276 278 280 281 282 284 285 286 286 287 288 290 290 292 293 294 296 297 297
260 257 255 253 252 251 250 251 251 252 252 252 251 250 250 249 248 248 248 247 247 247 247 246 246 244 243 242 240 239 239 237 235 233 231 229 228 227 226 227 228 228 229 230 232 233 234 235 237 240 241 244 246 249 251 253 256 259 261 263 264 264 264 266 268 271 274 277 279 280 282 283 285 286 287 287 288 289 289 291 293 293 295 297 296
261 259 257 255 253 251 250 250 250 251 251 251 251 251 250 249 248 248 248 248 247 247 247 247 246 244 243 242 241 240 239 237 236 234 230 228 227 226 226 227 227 227 227 229 231 233 235 236 238 240 241 244 247 249 251 254 257 259 260 262 263 263 264 265 267 270 273 275 277 280 281 283 284 285 286 287 288 288 288 291 293 293 294 296 296
263 261 259 257 255 252 251 251 250 251 250 251 251 251 250 249 248 248 248 248 247 247 247 247 246 245 243 242 242 240 239 237 235 233 230 228 226 225 225 226 226 226 226 228 231 233 235 237 239 240 241 244 246 248 251 254 257 258 260 261 262 263 265 266 267 269 271 273 276 278 280 282 284 285 285 286 287 288 288 290 293 292 293 297 297
263 262 261 259 257 255 253 252 251 250 250 250 250 251 250 249 249 248 248 249 249 247 247 247 246 246 244 242 241 240 238 236 234 231 229 227 225 225 226 226 226 226 226 228 230 233 235 238 239 240 242 244 246 249 252 254 255 257 259 260 262 263 264 266 267 268 270 272 274 277 279 282 284 285 285 286 287 288 288 290 291 291 293 296 297
263 262 261 260 258 256 254 252 251 251 250 250 250 250 249 249 248 249 249 249 249 249 248 248 248 246 244 242 240 239 237 235 232 230 229 226 224 225 227 227 227 227 227 228 230 232 235 237 238 240 241 244 246 250 252 253 255 256 258 260 262 262 263 264 265 267 270 272 274 276 279 282 283 283 285 286 287 287 288 291 291 291 293 295 295
263 262 261 260 258 255 253 251 250 250 250 250 250 250 249 249 248 249 249 249 249 250 250 249 249 247 244 240 238 237 235 233 231 229 228 226 224 225 226 227 227 228 228 228 228 230 233 235 236 238 240 243 246 249 251 252 254 256 257 259 260 260 262 263 265 268 270 272 274 276 279 281 281 282 284 285 286 286 288 291 292 292 294 295 294
262 262 261 260 258 255 252 251 250 251 250 250 251 251 250 249 248 248 249 249 249 251 251 250 249 247 243 239 237 235 234 232 230 228 227 225 224 225 226 226 227 227 226 225 227 229 232 233 234 237 239 242 245 247 250 252 254 255 256 257 259 260 263 264 266 269 271 272 274 276 278 278 280 282 283 284 286 287 289 291 293 294 295 295 294
262 261 259 258 256 254 251 250 250 251 250 250 251 252 250 248 247 247 247 248 249 251 251 250 250 248 242 237 235 234 232 231 229 227 226 225 225 225 225 226 227 225 224 225 226 228 230 231 232 234 238 241 243 245 248 251 254 255 256 258 260 263 264 266 267 268 270 271 273 275 276 278 280 282 283 285 286 288 290 292 293 295 296 296 295
261 259 258 256 254 252 250 249 249 249 249 250 252 252 250 247 245 245 245 246 247 249 250 250 250 247 241 235 233 232 232 232 230 228 226 225 225 224 224 224 224 223 223 224 224 225 227 229 230 232 235 238 240 243 246 249 252 254 257 260 263 264 265 266 266 267 268 270 272 273 275 278 281 282 283 285 287 289 291 293 294 295 296 296 297
260 258 257 255 254 252 250 248 247 247 247 249 251 252 250 246 243 243 244 244 245 246 247 247 246 244 239 233 231 231 231 231 231 228 224 224 223 223 222 221 221 221 221 221 222 223 225 227 228 231 234 236 240 243 245 248 250 253 256 260 263 265 266 266 266 266 268 271 272 273 275 278 281 282 285 287 288 290 291 292 294 295 296 296 297
259 257 256 256 255 253 251 248 246 245 246 248 250 251 249 244 240 240 241 241 242 243 243 240 236 236 234 229 227 228 229 229 228 226 223 222 221 221 221 221 220 220 219 219 220 222 223 225 227 230 233 236 240 243 244 246 249 252 255 259 262 264 265 266 267 268 269 271 272 273 277 279 281 283 286 288 289 290 292 292 294 296 295 296 296
258 256 256 256 255 254 251 248 246 245 246 248 249 249 246 240 237 237 238 238 238 239 239 235 231 230 228 224 224 225 224 223 222 219 218 218 218 217 218 218 217 217 216 217 219 221 223 225 227 229 233 237 240 242 243 245 249 252 255 258 260 262 263 265 268 269 270 272 272 275 278 280 282 284 286 288 290 291 292 293 295 297 297 296 297
257 256 256 255 256 255 252 249 246 244 245 246 245 244 242 236 233 233 234 233 232 233 234 232 229 228 223 218 216 215 213 213 211 210 211 212 210 209 209 210 211 213 214 216 218 220 222 224 227 230 234 237 241 243 243 245 248 251 254 256 258 259 262 266 269 270 271 273 274 276 279 281 283 285 287 289 291 292 292 293 296 298 298 297 298
258 256 255 255 256 255 253 249 246 244 244 242 240 239 236 231 228 229 230 228 226 228 229 226 225 225 220 214 211 209 208 209 208 206 206 205 203 202 202 203 205 207 209 212 214 216 218 222 226 230 234 237 240 243 244 245 247 249 251 253 256 258 262 267 270 271 272 274 275 277 279 282 285 288 290 292 293 294 293 293 297 299 299 299 300
259 257 255 254 255 254 252 247 244 242 240 237 234 233 230 226 224 224 224 223 221 221 220 218 220 220 213 209 211 213 211 208 205 204 203 202 200 200 200 201 203 204 206 208 211 214 218 223 227 231 234 236 239 241 243 244 245 248 249 251 255 258 262 265 269 271 272 273 275 277 280 284 287 290 294 296 296 296 295 294 297 299 299 299 300
259 257 255 253 253 252 249 244 240 238 235 231 229 228 225 221 220 220 219 217 216 213 210 211 216 215 207 205 209 211 210 206 203 202 203 202 201 200 200 201 202 204 206 208 212 217 221 225 229 230 230 233 236 239 242 243 244 246 248 251 254 258 260 262 265 268 269 272 275 278 281 284 287 292 295 297 298 298 297 297 299 299 298 299 300
257 256 254 251 250 249 245 239 237 234 229 225 224 224 221 218 218 218 216 213 210 208 207 209 212 210 205 204 205 204 202 201 200 200 200 200 199 198 199 201 203 205 207 209 213 218 220 222 226 228 229 232 236 239 242 244 245 246 248 251 254 256 257 259 262 265 268 272 276 279 282 284 286 290 294 296 298 299 299 299 299 299 299 299 299
254 252 251 248 246 244 241 235 232 230 225 221 220 219 217 216 217 217 214 211 208 207 207 207 208 207 203 202 203 203 199 197 197 198 198 199 198 197 198 200 202 204 206 209 211 214 217 220 223 228 230 232 235 238 242 245 245 246 248 250 252 253 255 258 261 265 268 272 276 280 283 285 287 289 292 294 296 298 299 300 300 300 300 299 299
250 248 247 245 242 239 235 231 229 226 223 220 218 216 215 215 215 215 213 210 206 205 205 205 205 204 201 199 201 203 201 198 197 197 197 198 198 197 198 199 200 202 203 206 209 212 216 220 223 226 229 231 234 237 240 244 246 246 247 248 249 251 254 258 261 265 270 273 277 280 282 285 287 290 292 294 296 297 299 300 300 300 301 301 301
245 244 243 241 238 234 231 229 226 223 222 219 216 215 215 214 213 213 211 207 203 200 200 202 203 201 198 197 198 199 199 199 198 198 198 199 199 199 199 199 201 202 202 205 208 212 216 218 220 223 227 229 232 234 237 240 242 242 243 245 249 252 256 260 264 268 272 275 278 281 283 285 288 290 292 294 296 298 298 300 301 302 303 303 303
240 240 239 238 235 231 228 226 221 219 221 219 216 216 215 213 212 212 209 204 200 197 197 200 200 198 197 199 200 198 197 198 199 200 200 199 199 199 198 198 200 201 201 203 206 209 212 214 216 220 223 225 227 230 233 236 237 240 243 246 251 257 261 265 268 271 274 277 280 282 284 286 288 291 292 294 296 298 299 300 302 303 304 304 303
237 236 235 233 232 229 224 219 217 219 220 217 215 215 213 212 212 212 207 203 200 198 198 199 198 197 198 200 199 198 197 197 197 197 197 196 194 193 193 195 197 197 197 200 203 206 208 209 212 216 220 223 226 230 233 236 238 242 247 251 257 263 266 269 272 274 276 279 281 283 286 288 289 291 292 294 297 300 301 301 303 304 304 304 302
232 233 232 230 228 226 222 217 217 219 217 214 213 213 212 212 213 210 206 204 201 199 199 199 198 198 199 199 197 195 193 192 190 189 189 188 186 186 187 189 191 192 194 197 199 201 203 205 209 215 218 222 226 230 235 240 244 248 252 258 263 268 270 272 274 276 278 280 282 284 286 288 290 292 293 295 298 301 302 302 303 305 306 305 303
229 230 230 227 223 222 220 217 215 215 213 211 211 210 211 212 211 208 205 203 201 199 199 198 197 197 197 194 192 190 188 186 185 183 182 181 180 181 182 184 186 189 191 194 196 198 201 205 210 215 219 225 231 235 239 244 248 253 259 263 267 270 271 273 275 277 279 281 283 284 286 287 290 292 293 295 297 300 304 304 303 305 307 307 305
229 228 225 221 218 218 217 214 212 210 208 207 207 207 208 209 207 204 202 201 199 197 196 195 193 193 193 190 188 186 186 185 184 182 182 182 182 183 185 186 188 190 192 195 198 200 204 209 213 219 225 230 236 240 243 248 253 258 263 266 268 269 272 274 276 277 279 281 283 284 285 287 290 291 292 294 296 298 302 305 304 305 307 307 306
227 224 220 216 214 214 214 211 209 207 203 202 203 203 203 203 203 202 200 199 198 197 195 194 192 191 191 189 187 186 186 186 186 186 186 187 187 189 189 190 193 195 198 200 203 206 210 215 221 226 231 236 240 244 249 253 257 260 262 264 267 270 272 275 277 278 280 281 282 285 286 287 290 292 292 295 297 297 299 303 304 305 307 307 305
224 220 216 212 211 212 213 210 207 204 199 197 199 199 198 197 198 200 200 199 199 198 197 196 195 193 191 190 188 188 189 189 188 188 189 191 192 194 195 197 200 203 203 205 208 213 219 224 229 233 237 241 244 248 251 254 256 259 261 264 267 270 272 274 277 279 281 282 283 286 288 288 291 293 293 295 297 296 298 302 303 304 305 305 304
220 217 213 211 210 210 211 209 205 200 196 194 193 195 195 194 194 197 199 199 199 199 199 199 198 197 195 193 190 189 190 189 187 187 189 191 194 196 200 203 206 207 207 210 216 222 226 230 233 237 240 243 246 249 252 254 257 260 263 265 268 271 273 274 277 280 283 284 284 287 289 289 290 292 293 295 297 297 298 301 302 302 303 304 303
215 213 211 210 208 207 208 207 203 199 195 192 190 190 191 191 192 195 197 198 199 201 202 203 203 201 200 198 194 191 189 187 186 188 190 192 195 198 201 203 205 207 210 216 223 227 229 232 236 239 242 246 249 252 255 258 260 262 264 266 268 271 273 274 277 281 283 283 284 287 288 288 290 292 293 295 297 298 298 300 301 301 302 303 303
214 210 207 205 203 202 203 202 200 198 194 191 189 188 187 187 188 191 194 196 198 200 202 204 206 204 203 201 198 195 193 191 190 192 195 197 198 201 203 205 207 210 214 221 227 230 232 235 238 241 244 247 250 253 256 259 261 263 265 267 268 271 273 274 279 282 282 282 284 285 286 288 290 292 293 295 296 298 299 300 301 302 302 303 304
215 210 205 200 197 197 197 196 196 196 194 191 189 188 188 187 187 189 192 194 196 199 201 203 203 203 202 200 199 197 195 194 195 197 199 201 203 205 207 209 212 215 219 225 231 234 235 238 240 243 246 249 251 254 256 259 262 264 267 270 271 274 275 276 280 283 282 283 285 286 286 288 290 292 293 295 296 298 299 300 301 302 303 304 304
215 212 207 202 199 197 195 193 193 194 194 193 191 190 190 190 190 190 192 194 196 199 200 201 200 200 200 201 200 199 197 198 199 201 202 204 206 208 211 214 218 222 226 230 234 236 238 240 243 246 248 250 252 254 257 260 264 267 270 273 275 278 279 278 280 282 283 284 285 286 287 289 291 293 295 296 297 298 299 300 301 302 303 304 305
215 213 209 206 204 201 199 197 195 195 196 196 196 195 195 194 194 194 195 195 196 198 199 199 199 200 201 202 201 201 201 201 203 205 206 208 209 212 215 218 222 226 229 234 238 240 241 244 246 247 249 251 254 256 260 264 267 270 273 275 277 279 281 281 282 283 285 286 287 288 289 290 292 294 295 296 297 298 300 301 301 302 304 305 305
216 214 211 209 208 206 203 201 200 199 199 200 200 201 201 200 199 199 199 198 198 199 199 200 200 201 203 204 203 203 204 205 206 209 211 212 214 216 220 223 225 228 231 235 238 241 243 246 248 250 253 255 258 262 265 269 271 273 275 278 280 281 282 284 285 286 287 288 289 290 290 291 292 294 295 296 297 298 300 301 302 303 304 305 306
216 215 213 211 210 208 206 205 204 203 203 203 204 205 205 205 205 204 204 203 202 202 202 202 202 203 205 206 206 206 207 209 211 214 216 218 220 222 225 229 231 231 232 234 237 240 244 247 250 253 257 261 264 267 270 272 275 276 278 279 282 283 284 285 287 288 289 289 290 290 290 291 293 295 295 296 297 299 300 301 302 303 304 305 305
218 217 214 211 210 210 208 207 206 205 205 207 207 208 208 209 209 210 209 208 207 207 206 204 203 205 207 207 207 208 209 212 215 217 219 221 223 224 227 232 234 234 234 236 238 241 246 250 254 258 262 265 267 270 272 275 277 279 280 282 283 284 285 287 288 288 289 289 290 291 291 292 294 295 295 296 297 299 300 301 302 303 304 304 304
218 218 214 211 211 211 210 208 207 207 208 209 210 210 211 211 212 212 213 212 210 210 210 208 206 207 208 208 208 209 211 214 217 220 221 223 224 225 227 231 234 235 237 239 241 244 250 255 258 262 265 268 270 273 275 278 280 281 282 284 285 286 287 288 289 290 290 290 291 291 292 293 294 295 296 297 298 299 300 301 302 303 304 305 305
217 216 213 211 212 213 212 210 209 209 210 211 213 213 213 214 214 214 215 214 213 212 212 211 210 209 210 210 209 210 212 215 218 221 222 222 223 225 228 231 234 236 239 242 245 248 253 257 261 265 269 271 274 276 278 280 282 283 284 285 286 287 288 289 290 291 292 292 292 292 292 293 294 295 296 297 298 299 301 302 303 303 304 304 305
215 213 211 210 211 212 212 211 211 211 211 213 215 216 216 216 216 216 216 216 215 214 214 214 213 212 212 211 209 210 213 216 219 221 222 222 223 226 229 233 237 239 242 245 249 252 257 260 264 268 272 274 276 278 280 281 282 283 284 285 286 288 289 291 291 292 292 292 292 292 293 294 295 296 297 298 299 300 301 302 303 303 304 304 305
213 211 210 210 210 211 212 212 212 212 213 214 216 217 217 217 217 217 217 217 216 215 215 215 214 214 213 211 210 212 216 219 222 224 224 224 226 229 232 236 239 242 246 250 253 257 261 264 267 270 273 275 277 279 280 282 283 284 285 286 287 289 290 291 292 292 293 293 293 294 294 295 297 297 298 298 299 300 301 302 303 303 304 304 305
211 211 211 210 210 211 213 213 213 213 214 215 216 217 217 218 218 218 218 217 217 217 216 216 216 216 215 214 215 217 220 223 227 229 228 229 231 234 237 241 245 248 251 255 259 262 264 266 268 270 273 276 278 280 281 282 283 285 286 287 288 289 290 291 291 292 293 293 294 295 296 296 297 298 298 298 299 300 301 302 302 303 304 305 305
213 212 212 212 212 213 215 217 217 218 218 219 219 220 220 220 221 221 220 220 220 220 220 220 220 220 219 219 220 222 224 227 231 234 235 236 238 241 244 247 250 253 256 260 263 265 266 267 268 271 273 276 279 281 281 282 284 285 286 287 288 289 290 290 291 292 293 294 295 296 297 297 297 298 299 299 300 300 301 302 302 303 304 305 305
217 216 216 216 217 217 219 221 222 223 224 224 225 225 225 225 225 224 224 224 224 224 225 225 225 224 224 223 224 225 227 230 234 238 240 242 244 247 250 252 254 257 260 263 264 266 267 268 269 271 274 277 279 280 281 283 284 285 286 287 288 289 289 290 291 293 294 295 296 297 298 298 299 300 300 300 301 301 301 302 302 303 304 305 306
221 221 220 221 221 222 223 224 225 226 227 228 229 229 229 229 229 228 228 228 229 229 229 230 230 230 230 229 229 230 231 234 238 241 243 246 248 250 253 255 257 259 262 265 266 267 268 268 270 272 274 276 278 280 281 283 284 285 286 287 287 288 289 291 292 294 296 297 298 298 299 300 301 301 301 301 301 301 301 302 303 304 304 305 306
225 225 225 226 226 226 227 228 229 229 230 232 233 232 232 233 233 232 232 232 232 233 233 234 235 235 235 235 235 235 236 238 241 243 246 248 250 253 255 257 259 262 265 266 267 268 268 268 269 271 273 275 277 279 281 282 284 285 286 287 287 288 290 292 294 295 297 298 299 300 301 301 302 302 302 302 302 302 303 303 304 304 305 306 306
230 230 231 231 232 232 233 233 233 234 235 236 237 237 237 236 236 236 236 235 235 236 236 236 237 238 238 238 239 240 240 242 244 246 248 250 252 255 257 259 261 264 266 267 268 268 268 268 269 270 272 274 276 278 280 282 283 284 286 287 288 289 291 293 295 297 298 299 300 301 302 302 302 302 302 302 303 303 303 304 304 305 306 306 306
233 234 234 235 236 237 238 238 239 239 239 240 241 241 241 241 240 239 239 239 238 238 238 238 239 239 240 240 241 242 244 245 247 248 250 252 254 256 258 260 262 264 266 267 268 268 267 268 268 269 271 272 274 276 279 281 282 284 286 287 289 290 293 295 297 298 299 300 301 301 302 302 302 302 302 302 302 303 303 304 305 305 306 306 306
236 237 238 238 239 240 242 243 244 244 244 244 245 245 246 246 245 244 242 242 241 241 240 240 241 241 242 243 243 244 246 247 249 249 251 253 255 256 258 261 264 266 267 268 268 268 267 268 268 269 270 272 273 275 277 279 282 284 287 288 290 292 294 296 297 297 299 300 300 301 301 302 302 302 303 303 303 304 304 304 305 305 305 305 306
239 241 242 243 244 244 245 246 247 248 248 249 249 249 249 249 249 248 246 244 244 243 243 243 243 243 244 245 245 246 247 248 249 251 252 254 255 257 259 263 265 266 267 268 268 268 268 268 268 269 270 271 272 274 277 280 283 286 287 289 290 292 294 295 296 297 298 299 300 300 301 302 302 302 303 303 303 304 304 305 305 305 305 305 306